User: anonymous   Login
Location: Terra Rouge Observatory
(46.0000°N, 62.7500°W)
Time: 16:53:33
(UTC-03:00)
Language:

Landsat 5 - Orbit

View from above orbital plane
View from above orbital plane
View from above satellite
View from above satellite

Ground track
Ground track

The orbit data is extracted from the following two-line orbital elements,

1 14780U 84021A   16151.87075622  .00000370  00000-0  40722-4 0  9995
2 14780  98.0237 250.9705 0091204 348.8861  11.0340 14.91140028718895
Epoch (UTC): 30 May 2016 20:53:53
Eccentricity: 0.0091204
inclination: 98.0237°
perigee height: 531 km
apogee height: 658 km
right ascension of ascending node: 250.9705°
argument of perigee: 348.8861°
revolutions per day: 14.91140028
mean anomaly at epoch: 11.0340°
orbit number at epoch: 71889

The dashed part of the orbit path shows where the satellite is in the earth's shadow,  

DLR